Content
SEND FEEDBACK

Daily
Averages
Monthly
Summary
United States of America

POTTS JUNCTION, GUAM


Home > North America > United States > Guam
Elevation: 360 feet     Latitude: 13 33N     Longitude: 144 50E

WEATHER
 
SELECT A DAY
Number of Records: 214,100;   Date Range: 1/1/95 - 10/29/14
 
SHARE

PRINT THIS DATA

[ ← Previous Day ]
WEATHER ALMANAC - JANUARY 30, 2013
[ Next Day → ]
[ °C ]   °F
Weather ElementAverageHighLow
Temperature80.4 °F84.9 °F (11:54 am)77 °F (3:54 am)
Dewpoint70.1 °F73.9 °F (10:54 pm)68 °F (12:54 pm)
Humidity71.2 %87 % (10:54 pm)58 % (12:54 pm)
Barometer29.96 in30.01 in (9:54 am)29.92 in (2:54 pm)
Wind Speed11.7 mph17.3 mph (12:54 pm)
Wind Gust25.3 mph (2:54 pm)
Weather ElementAverage
Visibility10 mi
Wind DirectionENE (77.8 °)

Weather ElementTotal
Precipitation---
Cooling Degree Days16 (Base 65)
Growing Degree Days31 (Base 50)
Averaged from 23 records on January 30, 2013
WEATHER CONDITIONS BREAKOUT
WIND DIRECTION BREAKOUT
WEATHER BY HOUR - JANUARY 30, 2013
[ °C ]   °F
Local TimeTemperatureDewpointHumidityBarometerVisibilityWind DirectionWind SpeedGust SpeedPrecipitationEventsConditions
1:54 AM78.1 °F69.1 °F74 %29.95 in10.0 miEast (80°)9.2 mphClear
2:54 AM78.1 °F69.1 °F74 %29.94 in10.0 miEast (80°)8.1 mphPartly Cloudy
3:54 AM77.0 °F69.1 °F76 %29.93 in10.0 miEast (80°)8.1 mphClear
4:54 AM77.0 °F69.1 °F76 %29.94 in10.0 miEast (80°)10.4 mphClear
5:54 AM77.0 °F69.1 °F76 %29.95 in10.0 miEast (80°)8.1 mphScattered Clouds
6:54 AM77.0 °F70.0 °F79 %29.96 in10.0 miEast (80°)10.4 mphScattered Clouds
7:54 AM79.0 °F69.1 °F72 %29.98 in10.0 miEast (90°)9.2 mph20.7 mphPartly Cloudy
8:54 AM81.0 °F69.1 °F67 %30.00 in10.0 miEast (80°)12.7 mphPartly Cloudy
9:54 AM82.9 °F69.1 °F63 %30.01 in10.0 miEast (80°)13.8 mphPartly Cloudy
10:54 AM82.9 °F69.1 °F63 %30.00 in10.0 miEast (90°)16.1 mph24.2 mphClear
11:54 AM84.9 °F69.1 °F59 %29.97 in10.0 miEast (80°)15.0 mph20.7 mphPartly Cloudy
12:54 PM84.0 °F68.0 °F58 %29.96 in10.0 miENE (70°)17.3 mphPartly Cloudy
1:54 PM84.0 °F68.0 °F58 %29.94 in10.0 miEast (100°)17.3 mph24.2 mphClear
2:54 PM84.9 °F69.1 °F59 %29.92 in10.0 miEast (90°)17.3 mph25.3 mphClear
3:54 PM84.0 °F70.0 °F63 %29.92 in10.0 miENE (70°)13.8 mphPartly Cloudy
4:54 PM82.9 °F70.0 °F65 %29.93 in10.0 miEast (80°)12.7 mphScattered Clouds
5:54 PM81.0 °F70.0 °F69 %29.95 in10.0 miEast (80°)12.7 mphClear
6:54 PM81.0 °F71.1 °F72 %29.96 in10.0 miEast (80°)6.9 mphMostly Cloudy
7:54 PM79.0 °F73.0 °F82 %29.99 in10.0 miNE (40°)5.8 mphScattered Clouds
8:54 PM78.1 °F73.0 °F84 %29.99 in10.0 miENE (70°)10.4 mph0.00 inClear
9:54 PM79.0 °F73.0 °F82 %29.99 in10.0 miENE (70°)13.8 mphScattered Clouds
10:54 PM78.1 °F73.9 °F87 %29.99 in10.0 miENE (70°)10.4 mph0.00 inOvercast
11:54 PM79.0 °F72.0 °F79 %29.99 in10.0 miENE (70°)10.4 mphMostly Cloudy
Hourly data recorded from PGUM, located miles away from Potts Junction, Guam







STORIES FROM OUR PARTNERS